| time (UTC) | temp F | wind direction | speed MPH | gust MPH | rain 1hr in | rain 24hr in | rain mn in | humidity % | barometer mb |
| 20260903005505 | 54 | 104 | 2.0 | 3.0 | 0.00 | 0.16 | 0.00 | 96 | 1016.1 |
| 20260903005025 | 54 | 105 | 2.0 | 3.0 | 0.00 | 0.16 | 0.00 | 97 | 1016.2 |
| 20260903004505 | 55 | 109 | 2.0 | 3.0 | 0.00 | 0.16 | 0.00 | 97 | 1016.0 |
| 20260903004005 | 55 | 118 | 2.0 | 3.0 | 0.00 | 0.16 | 0.00 | 97 | 1016.1 |
| 20260903003504 | 55 | 121 | 2.0 | 4.0 | 0.00 | 0.16 | 0.00 | 98 | 1016.0 |
| 20260903003004 | 55 | 121 | 2.0 | 4.0 | 0.00 | 0.17 | 0.00 | 98 | 1015.8 |
| 20260903002505 | 55 | 121 | 2.0 | 3.0 | 0.00 | 0.17 | 0.00 | 98 | 1015.9 |
| 20260903002004 | 55 | 121 | 2.0 | 4.0 | 0.00 | 0.17 | 0.00 | 98 | 1015.8 |
| 20260903001504 | 55 | 120 | 3.0 | 4.0 | 0.00 | 0.17 | 0.00 | 98 | 1016.0 |
| 20260903001004 | 55 | 122 | 3.0 | 4.0 | 0.00 | 0.17 | 0.00 | 98 | 1015.9 |
| 20260903000504 | 55 | 124 | 2.0 | 4.0 | 0.00 | 0.17 | 0.00 | 98 | 1015.9 |
| 20260903000004 | 55 | 125 | 2.0 | 4.0 | 0.00 | 0.17 | 0.00 | 99 | 1016.1 |
| 20260902235505 | 55 | 123 | 2.0 | 4.0 | 0.00 | 0.18 | 0.00 | 99 | 1016.0 |
| 20260902235005 | 54 | 121 | 2.0 | 4.0 | 0.00 | 0.18 | 0.00 | 99 | 1016.2 |
| 20260902234504 | 54 | 122 | 2.0 | 4.0 | 0.00 | 0.18 | 0.00 | 99 | 1016.2 |
| 20260902234005 | 54 | 122 | 2.0 | 3.0 | 0.00 | 0.18 | 0.00 | 99 | 1016.0 |
| 20260902233504 | 53 | 122 | 2.0 | 4.0 | 0.00 | 0.18 | 0.00 | 99 | 1016.3 |
| 20260902233004 | 53 | 122 | 2.0 | 4.0 | 0.00 | 0.18 | 0.00 | 98 | 1016.2 |
| 20260902232504 | 53 | 122 | 2.0 | 3.0 | 0.00 | 0.18 | 0.00 | 98 | 1016.3 |
| 20260902232005 | 53 | 122 | 2.0 | 3.0 | 0.00 | 0.18 | 0.00 | 98 | 1016.4 |
| 20260902231504 | 53 | 122 | 2.0 | 3.0 | 0.00 | 0.18 | 0.00 | 98 | 1016.4 |
| 20260902231025 | 53 | 122 | 2.0 | 3.0 | 0.00 | 0.18 | 0.00 | 98 | 1016.4 |
| 20260902230504 | 53 | 122 | 2.0 | 3.0 | 0.00 | 0.18 | 0.00 | 98 | 1016.4 |
| 20260902230026 | 53 | 122 | 2.0 | 3.0 | 0.00 | 0.18 | 0.00 | 98 | 1016.4 |
| 20260902225504 | 54 | 120 | 2.0 | 4.0 | 0.00 | 0.18 | 0.00 | 98 | 1016.4 |
| 20260902225004 | 54 | 120 | 2.0 | 4.0 | 0.00 | 0.18 | 0.00 | 98 | 1016.4 |
| 20260902224504 | 54 | 120 | 3.0 | 4.0 | 0.00 | 0.18 | 0.00 | 98 | 1016.2 |
| 20260902224005 | 54 | 120 | 3.0 | 4.0 | 0.00 | 0.18 | 0.00 | 98 | 1016.3 |
| 20260902223505 | 54 | 120 | 2.0 | 4.0 | 0.00 | 0.18 | 0.00 | 98 | 1016.3 |
| 20260902223005 | 54 | 120 | 2.0 | 3.0 | 0.00 | 0.18 | 0.00 | 97 | 1016.3 |
| 20260902222505 | 54 | 119 | 2.0 | 4.0 | 0.00 | 0.18 | 0.00 | 97 | 1016.3 |
| 20260902222004 | 54 | 118 | 2.0 | 4.0 | 0.00 | 0.18 | 0.00 | 97 | 1016.3 |
| 20260902221504 | 54 | 117 | 2.0 | 4.0 | 0.00 | 0.18 | 0.00 | 97 | 1016.3 |
| 20260902221004 | 54 | 117 | 2.0 | 3.0 | 0.00 | 0.18 | 0.00 | 97 | 1016.3 |
| 20260902220504 | 54 | 117 | 2.0 | 3.0 | 0.00 | 0.18 | 0.00 | 97 | 1016.3 |
| 20260902220027 | 54 | 117 | 2.0 | 3.0 | 0.00 | 0.18 | 0.00 | 97 | 1016.5 |
| 20260902215505 | 54 | 117 | 2.0 | 3.0 | 0.00 | 0.18 | 0.18 | 97 | 1016.5 |
| 20260902215004 | 54 | 117 | 1.0 | 3.0 | 0.00 | 0.18 | 0.18 | 97 | 1016.5 |
| 20260902214505 | 54 | 117 | 1.0 | 2.0 | 0.00 | 0.18 | 0.18 | 97 | 1016.5 |
| 20260902214004 | 54 | 117 | 1.0 | 3.0 | 0.00 | 0.18 | 0.18 | 97 | 1016.6 |
| 20260902213504 | 54 | 117 | 2.0 | 4.0 | 0.00 | 0.18 | 0.18 | 97 | 1016.5 |
| 20260902213004 | 54 | 115 | 2.0 | 4.0 | 0.00 | 0.18 | 0.18 | 97 | 1016.7 |
| 20260902212505 | 54 | 113 | 2.0 | 3.0 | 0.00 | 0.18 | 0.18 | 97 | 1016.6 |
| 20260902212004 | 54 | 113 | 2.0 | 3.0 | 0.00 | 0.18 | 0.18 | 97 | 1016.5 |
| 20260902211504 | 54 | 113 | 2.0 | 4.0 | 0.00 | 0.18 | 0.18 | 97 | 1016.5 |
| 20260902211004 | 54 | 109 | 2.0 | 4.0 | 0.00 | 0.18 | 0.18 | 97 | 1016.6 |
| 20260902210505 | 54 | 104 | 2.0 | 3.0 | 0.00 | 0.18 | 0.18 | 96 | 1016.6 |
| 20260902210004 | 55 | 104 | 2.0 | 3.0 | 0.00 | 0.18 | 0.18 | 96 | 1016.6 |
| 20260902205504 | 55 | 104 | 2.0 | 3.0 | 0.00 | 0.18 | 0.18 | 96 | 1016.8 |
| 20260902205004 | 55 | 104 | 2.0 | 3.0 | 0.00 | 0.18 | 0.18 | 96 | 1016.6 |
| 20260902204504 | 55 | 104 | 2.0 | 2.0 | 0.00 | 0.18 | 0.18 | 96 | 1016.8 |
| 20260902204004 | 55 | 103 | 2.0 | 3.0 | 0.00 | 0.18 | 0.18 | 96 | 1016.7 |
| 20260902203504 | 55 | 99 | 2.0 | 3.0 | 0.00 | 0.18 | 0.18 | 96 | 1016.5 |
| 20260902203004 | 56 | 96 | 2.0 | 3.0 | 0.00 | 0.18 | 0.18 | 95 | 1016.7 |
| 20260902202503 | 56 | 95 | 2.0 | 3.0 | 0.00 | 0.18 | 0.18 | 95 | 1016.7 |
| 20260902202004 | 56 | 95 | 2.0 | 3.0 | 0.00 | 0.18 | 0.18 | 95 | 1016.7 |
| 20260902201504 | 56 | 93 | 2.0 | 2.0 | 0.00 | 0.18 | 0.18 | 95 | 1016.8 |
| 20260902201026 | 56 | 96 | 2.0 | 3.0 | 0.00 | 0.18 | 0.18 | 95 | 1016.7 |
| 20260902200505 | 56 | 98 | 2.0 | 3.0 | 0.00 | 0.18 | 0.18 | 95 | 1016.8 |
| 20260902200005 | 56 | 98 | 2.0 | 3.0 | 0.00 | 0.18 | 0.18 | 95 | 1016.8 |
| 20260902195504 | 57 | 103 | 2.0 | 3.0 | 0.00 | 0.18 | 0.18 | 95 | 1016.8 |
| 20260902195005 | 56 | 110 | 2.0 | 3.0 | 0.00 | 0.19 | 0.18 | 95 | 1016.7 |
| 20260902194504 | 57 | 114 | 2.0 | 3.0 | 0.00 | 0.21 | 0.18 | 94 | 1016.8 |
| 20260902194004 | 57 | 114 | 2.0 | 3.0 | 0.00 | 0.21 | 0.18 | 94 | 1016.7 |
| 20260902193526 | 57 | 110 | 2.0 | 3.0 | 0.00 | 0.22 | 0.18 | 94 | 1016.8 |
| 20260902193026 | 57 | 103 | 2.0 | 3.0 | 0.00 | 0.22 | 0.18 | 94 | 1016.8 |
| 20260902192504 | 57 | 98 | 2.0 | 3.0 | 0.00 | 0.23 | 0.18 | 93 | 1016.9 |
| 20260902192005 | 57 | 93 | 2.0 | 3.0 | 0.00 | 0.23 | 0.18 | 93 | 1017.0 |
| 20260902191526 | 57 | 91 | 1.0 | 3.0 | 0.00 | 0.23 | 0.18 | 93 | 1017.0 |
| 20260902191004 | 58 | 87 | 1.0 | 3.0 | 0.00 | 0.23 | 0.18 | 93 | 1016.9 |
| 20260902190505 | 58 | 81 | 1.0 | 2.0 | 0.00 | 0.23 | 0.18 | 93 | 1017.0 |
| 20260902190005 | 58 | 76 | 1.0 | 2.0 | 0.00 | 0.23 | 0.18 | 93 | 1017.1 |
| 20260902185504 | 58 | 75 | 1.0 | 2.0 | 0.00 | 0.23 | 0.18 | 93 | 1017.2 |
| 20260902185005 | 58 | 77 | 1.0 | 2.0 | 0.00 | 0.23 | 0.18 | 93 | 1017.1 |
| 20260902184503 | 58 | 76 | 1.0 | 2.0 | 0.00 | 0.23 | 0.18 | 93 | 1017.2 |
| 20260902184004 | 58 | 72 | 1.0 | 2.0 | 0.00 | 0.23 | 0.18 | 94 | 1017.1 |
| 20260902183525 | 58 | 67 | 1.0 | 2.0 | 0.00 | 0.23 | 0.18 | 94 | 1017.2 |
| 20260902183026 | 58 | 65 | 1.0 | 2.0 | 0.00 | 0.23 | 0.18 | 94 | 1017.1 |
| 20260902182525 | 58 | 64 | 0.0 | 1.0 | 0.00 | 0.23 | 0.18 | 93 | 1017.1 |
| 20260902182004 | 58 | 64 | 0.0 | 1.0 | 0.00 | 0.23 | 0.18 | 93 | 1017.0 |
| 20260902181503 | 58 | 64 | 0.0 | 1.0 | 0.00 | 0.23 | 0.18 | 93 | 1017.1 |
| 20260902181004 | 58 | 0 | 0.0 | 0.0 | 0.00 | 0.23 | 0.18 | 92 | 1017.1 |
| 20260902180505 | 58 | 0 | 0.0 | 0.0 | 0.00 | 0.23 | 0.18 | 92 | 1017.0 |
| 20260902180006 | 58 | 0 | 0.0 | 0.0 | 0.00 | 0.23 | 0.18 | 91 | 1017.1 |
| 20260902175504 | 58 | 0 | 0.0 | 0.0 | 0.00 | 0.23 | 0.18 | 90 | 1017.1 |
| 20260902175005 | 59 | 0 | 0.0 | 0.0 | 0.00 | 0.23 | 0.18 | 90 | 1016.9 |
| 20260902174505 | 59 | 0 | 0.0 | 0.0 | 0.00 | 0.23 | 0.18 | 89 | 1016.8 |
| 20260902174004 | 59 | 64 | 0.0 | 1.0 | 0.00 | 0.23 | 0.18 | 88 | 1017.0 |
| 20260902173503 | 60 | 64 | 0.0 | 1.0 | 0.00 | 0.23 | 0.18 | 87 | 1017.0 |
| 20260902173005 | 60 | 64 | 0.0 | 1.0 | 0.00 | 0.23 | 0.18 | 86 | 1017.0 |
| 20260902172504 | 60 | 63 | 0.0 | 2.0 | 0.00 | 0.23 | 0.18 | 85 | 1017.0 |
| 20260902172004 | 61 | 60 | 1.0 | 2.0 | 0.00 | 0.23 | 0.18 | 84 | 1017.1 |
| 20260902171503 | 61 | 44 | 1.0 | 2.0 | 0.00 | 0.23 | 0.18 | 82 | 1017.2 |
| 20260902171004 | 61 | 39 | 1.0 | 2.0 | 0.00 | 0.23 | 0.18 | 82 | 1017.2 |
| 20260902170503 | 61 | 48 | 1.0 | 3.0 | 0.00 | 0.23 | 0.18 | 80 | 1017.1 |
| 20260902170004 | 62 | 24 | 1.0 | 3.0 | 0.00 | 0.23 | 0.18 | 80 | 1017.2 |
| 20260902165504 | 62 | 34 | 1.0 | 3.0 | 0.00 | 0.23 | 0.18 | 79 | 1017.0 |
| 20260902165004 | 62 | 66 | 1.0 | 3.0 | 0.00 | 0.23 | 0.18 | 78 | 1017.1 |
| 20260902164503 | 62 | 248 | 1.0 | 4.0 | 0.00 | 0.23 | 0.18 | 78 | 1017.1 |
| 20260902164004 | 62 | 307 | 1.0 | 4.0 | 0.00 | 0.23 | 0.18 | 77 | 1017.2 |
| 20260902163504 | 62 | 344 | 2.0 | 4.0 | 0.00 | 0.23 | 0.18 | 77 | 1017.2 |
| 20260902163003 | 63 | 356 | 2.0 | 4.0 | 0.00 | 0.23 | 0.18 | 76 | 1017.1 |
| 20260902162504 | 63 | 10 | 2.0 | 8.0 | 0.00 | 0.23 | 0.18 | 78 | 1017.0 |
| 20260902162004 | 63 | 7 | 2.0 | 8.0 | 0.00 | 0.23 | 0.18 | 76 | 1017.1 |
| 20260902161505 | 63 | 12 | 1.0 | 7.0 | 0.00 | 0.23 | 0.18 | 77 | 1017.0 |
| 20260902161004 | 64 | 14 | 2.0 | 7.0 | 0.00 | 0.23 | 0.18 | 77 | 1016.9 |
| 20260902160504 | 64 | 346 | 2.0 | 7.0 | 0.00 | 0.23 | 0.18 | 76 | 1017.2 |
| 20260902160006 | 64 | 335 | 2.0 | 7.0 | 0.00 | 0.23 | 0.18 | 76 | 1017.0 |
| 20260902155505 | 63 | 345 | 2.0 | 7.0 | 0.00 | 0.23 | 0.18 | 78 | 1017.1 |
| 20260902155025 | 64 | 350 | 2.0 | 8.0 | 0.00 | 0.23 | 0.18 | 76 | 1017.1 |
| 20260902154504 | 64 | 332 | 2.0 | 8.0 | 0.00 | 0.23 | 0.18 | 76 | 1017.1 |
| 20260902154004 | 64 | 353 | 2.0 | 6.0 | 0.00 | 0.23 | 0.18 | 75 | 1017.1 |
| 20260902153504 | 64 | 3 | 2.0 | 7.0 | 0.00 | 0.23 | 0.18 | 74 | 1017.1 |
| 20260902153005 | 64 | 332 | 2.0 | 7.0 | 0.00 | 0.23 | 0.18 | 75 | 1017.2 |
| 20260902152504 | 64 | 253 | 2.0 | 8.0 | 0.00 | 0.23 | 0.18 | 74 | 1017.2 |
| 20260902152004 | 64 | 294 | 2.0 | 8.0 | 0.00 | 0.23 | 0.18 | 75 | 1017.2 |
| 20260902151505 | 64 | 358 | 2.0 | 8.0 | 0.00 | 0.23 | 0.18 | 77 | 1017.1 |
| 20260902151005 | 64 | 14 | 2.0 | 7.0 | 0.00 | 0.23 | 0.18 | 75 | 1017.2 |
| 20260902150504 | 64 | 7 | 2.0 | 7.0 | 0.00 | 0.23 | 0.18 | 75 | 1017.1 |
| 20260902150004 | 64 | 14 | 2.0 | 9.0 | 0.00 | 0.23 | 0.18 | 75 | 1017.2 |
| 20260902145504 | 64 | 359 | 2.0 | 9.0 | 0.00 | 0.23 | 0.18 | 74 | 1017.2 |
| 20260902145004 | 65 | 332 | 3.0 | 9.0 | 0.00 | 0.23 | 0.18 | 76 | 1017.3 |
| 20260902144503 | 65 | 301 | 3.0 | 9.0 | 0.00 | 0.23 | 0.18 | 74 | 1017.2 |
| 20260902144004 | 64 | 318 | 3.0 | 8.0 | 0.00 | 0.23 | 0.18 | 77 | 1017.1 |
| 20260902143504 | 64 | 323 | 2.0 | 7.0 | 0.00 | 0.23 | 0.18 | 77 | 1017.2 |
| 20260902143026 | 65 | 307 | 3.0 | 11.0 | 0.00 | 0.23 | 0.18 | 77 | 1017.0 |
| 20260902142503 | 65 | 338 | 2.0 | 11.0 | 0.00 | 0.23 | 0.18 | 76 | 1017.2 |
| 20260902142004 | 65 | 6 | 2.0 | 8.0 | 0.00 | 0.23 | 0.18 | 78 | 1017.2 |
| 20260902141504 | 66 | 351 | 2.0 | 6.0 | 0.00 | 0.23 | 0.18 | 77 | 1017.1 |
| 20260902141026 | 66 | 345 | 2.0 | 6.0 | 0.00 | 0.23 | 0.18 | 77 | 1017.1 |
| 20260902140525 | 66 | 331 | 2.0 | 4.0 | 0.00 | 0.23 | 0.18 | 80 | 1017.2 |
| 20260902140004 | 65 | 320 | 2.0 | 4.0 | 0.00 | 0.23 | 0.18 | 81 | 1017.0 |
| 20260902135503 | 65 | 330 | 2.0 | 4.0 | 0.00 | 0.23 | 0.18 | 82 | 1017.1 |
| 20260902135025 | 65 | 326 | 2.0 | 6.0 | 0.00 | 0.23 | 0.18 | 81 | 1017.2 |
| 20260902134503 | 65 | 7 | 1.0 | 6.0 | 0.00 | 0.23 | 0.18 | 83 | 1017.2 |
| 20260902134005 | 65 | 48 | 1.0 | 6.0 | 0.00 | 0.23 | 0.18 | 85 | 1017.2 |
| 20260902133504 | 64 | 328 | 1.0 | 7.0 | 0.00 | 0.24 | 0.18 | 86 | 1017.2 |
| 20260902133025 | 64 | 333 | 1.0 | 7.0 | 0.00 | 0.24 | 0.18 | 85 | 1017.3 |
| 20260902132504 | 63 | 28 | 1.0 | 3.0 | 0.00 | 0.25 | 0.18 | 87 | 1017.4 |
| 20260902132025 | 63 | 355 | 2.0 | 6.0 | 0.00 | 0.25 | 0.18 | 87 | 1017.3 |
| 20260902131525 | 63 | 342 | 2.0 | 8.0 | 0.00 | 0.25 | 0.18 | 85 | 1017.4 |
| 20260902131003 | 64 | 96 | 2.0 | 9.0 | 0.00 | 0.25 | 0.18 | 84 | 1017.4 |
| 20260902130524 | 65 | 155 | 3.0 | 9.0 | 0.00 | 0.25 | 0.18 | 79 | 1017.4 |
| 20260902130005 | 66 | 71 | 3.0 | 7.0 | 0.00 | 0.26 | 0.18 | 78 | 1017.2 |
| 20260902125504 | 67 | 60 | 2.0 | 8.0 | 0.00 | 0.26 | 0.18 | 75 | 1017.3 |
| 20260902125004 | 66 | 323 | 2.0 | 8.0 | 0.00 | 0.26 | 0.18 | 76 | 1017.4 |
| 20260902124503 | 65 | 302 | 2.0 | 6.0 | 0.00 | 0.26 | 0.18 | 76 | 1017.3 |
| 20260902124004 | 66 | 313 | 2.0 | 9.0 | 0.00 | 0.26 | 0.18 | 75 | 1017.2 |
| 20260902123503 | 66 | 89 | 2.0 | 9.0 | 0.00 | 0.26 | 0.18 | 74 | 1017.2 |
| 20260902123005 | 67 | 98 | 2.0 | 7.0 | 0.00 | 0.26 | 0.18 | 74 | 1017.4 |
| 20260902122504 | 66 | 69 | 2.0 | 7.0 | 0.00 | 0.26 | 0.18 | 74 | 1017.1 |
| 20260902122004 | 67 | 57 | 2.0 | 7.0 | 0.00 | 0.26 | 0.18 | 76 | 1017.4 |
| 20260902121504 | 67 | 104 | 2.0 | 7.0 | 0.00 | 0.26 | 0.18 | 78 | 1017.4 |
| 20260902121003 | 66 | 299 | 2.0 | 7.0 | 0.00 | 0.26 | 0.18 | 77 | 1017.5 |
| 20260902120525 | 65 | 316 | 2.0 | 7.0 | 0.00 | 0.26 | 0.18 | 78 | 1017.3 |
| 20260902120005 | 66 | 328 | 2.0 | 6.0 | 0.00 | 0.26 | 0.18 | 73 | 1017.5 |
| 20260902115504 | 67 | 321 | 2.0 | 7.0 | 0.00 | 0.26 | 0.18 | 76 | 1017.3 |
| 20260902115004 | 66 | 297 | 2.0 | 7.0 | 0.00 | 0.26 | 0.18 | 72 | 1017.4 |
| 20260902114503 | 66 | 324 | 1.0 | 8.0 | 0.00 | 0.26 | 0.18 | 80 | 1017.5 |
| 20260902114005 | 64 | 306 | 2.0 | 10.0 | 0.00 | 0.26 | 0.18 | 84 | 1017.5 |
| 20260902113504 | 64 | 288 | 3.0 | 11.0 | 0.00 | 0.26 | 0.18 | 81 | 1017.6 |
| 20260902113004 | 64 | 291 | 4.0 | 11.0 | 0.00 | 0.26 | 0.18 | 80 | 1017.7 |
| 20260902112503 | 65 | 290 | 4.0 | 10.0 | 0.00 | 0.26 | 0.18 | 77 | 1017.6 |
| 20260902112004 | 65 | 275 | 3.0 | 9.0 | 0.00 | 0.26 | 0.18 | 82 | 1017.6 |
| 20260902111503 | 64 | 273 | 3.0 | 9.0 | 0.00 | 0.26 | 0.18 | 81 | 1017.5 |
| 20260902111005 | 63 | 271 | 2.0 | 10.0 | 0.00 | 0.26 | 0.18 | 85 | 1017.5 |
| 20260902110504 | 63 | 282 | 4.0 | 10.0 | 0.00 | 0.26 | 0.18 | 82 | 1017.3 |
| 20260902110005 | 64 | 289 | 4.0 | 10.0 | 0.00 | 0.26 | 0.18 | 81 | 1017.5 |
| 20260902105504 | 64 | 290 | 4.0 | 10.0 | 0.00 | 0.26 | 0.18 | 81 | 1017.4 |
| 20260902105004 | 65 | 291 | 4.0 | 10.0 | 0.00 | 0.26 | 0.18 | 80 | 1017.5 |
| 20260902104503 | 65 | 290 | 3.0 | 10.0 | 0.00 | 0.27 | 0.18 | 81 | 1017.4 |
| 20260902104004 | 65 | 293 | 2.0 | 10.0 | 0.00 | 0.28 | 0.18 | 83 | 1017.4 |
| 20260902103503 | 65 | 279 | 2.0 | 7.0 | 0.00 | 0.28 | 0.18 | 83 | 1017.3 |
| 20260902103024 | 64 | 271 | 2.0 | 8.0 | 0.00 | 0.28 | 0.18 | 86 | 1017.3 |
| 20260902102503 | 62 | 286 | 2.0 | 9.0 | 0.00 | 0.28 | 0.18 | 91 | 1017.4 |
| 20260902102004 | 61 | 285 | 2.0 | 9.0 | 0.00 | 0.28 | 0.18 | 89 | 1017.4 |
| 20260902101504 | 62 | 266 | 2.0 | 6.0 | 0.02 | 0.28 | 0.18 | 89 | 1017.4 |
| 20260902101004 | 63 | 276 | 2.0 | 7.0 | 0.03 | 0.28 | 0.18 | 89 | 1017.4 |
| 20260902100503 | 63 | 339 | 3.0 | 8.0 | 0.03 | 0.28 | 0.18 | 88 | 1017.4 |
| 20260902100004 | 64 | 16 | 2.0 | 8.0 | 0.03 | 0.28 | 0.18 | 89 | 1017.3 |
| 20260902095525 | 64 | 15 | 2.0 | 8.0 | 0.03 | 0.28 | 0.18 | 92 | 1017.4 |
| 20260902095004 | 64 | 52 | 2.0 | 8.0 | 0.03 | 0.28 | 0.18 | 92 | 1017.3 |
| 20260902094524 | 64 | 82 | 2.0 | 6.0 | 0.03 | 0.28 | 0.18 | 93 | 1017.3 |
| 20260902094004 | 64 | 75 | 2.0 | 6.0 | 0.03 | 0.28 | 0.18 | 97 | 1017.3 |
| 20260902093503 | 62 | 66 | 2.0 | 6.0 | 0.03 | 0.28 | 0.18 | 97 | 1017.4 |
| 20260902093004 | 61 | 67 | 1.0 | 4.0 | 0.03 | 0.28 | 0.18 | 96 | 1017.2 |
| 20260902092505 | 61 | 77 | 2.0 | 4.0 | 0.03 | 0.28 | 0.18 | 95 | 1017.2 |
| 20260902092006 | 61 | 94 | 2.0 | 6.0 | 0.03 | 0.28 | 0.18 | 94 | 1017.4 |
| 20260902091526 | 62 | 82 | 2.0 | 6.0 | 0.01 | 0.26 | 0.16 | 94 | 1017.3 |
| 20260902091006 | 62 | 44 | 2.0 | 4.0 | 0.00 | 0.25 | 0.15 | 94 | 1017.1 |
| 20260902090504 | 61 | 52 | 1.0 | 4.0 | 0.00 | 0.25 | 0.15 | 93 | 1017.1 |
| 20260902090005 | 61 | 62 | 1.0 | 4.0 | 0.00 | 0.25 | 0.15 | 93 | 1017.2 |
| 20260902085505 | 61 | 71 | 2.0 | 4.0 | 0.00 | 0.25 | 0.15 | 92 | 1017.3 |
| 20260902085004 | 62 | 73 | 2.0 | 6.0 | 0.00 | 0.25 | 0.15 | 93 | 1017.2 |
| 20260902084505 | 62 | 79 | 2.0 | 6.0 | 0.00 | 0.25 | 0.15 | 93 | 1017.0 |
| 20260902084004 | 62 | 99 | 2.0 | 4.0 | 0.00 | 0.25 | 0.15 | 93 | 1017.1 |
| 20260902083504 | 62 | 101 | 2.0 | 4.0 | 0.00 | 0.25 | 0.15 | 94 | 1017.1 |
| 20260902083005 | 62 | 97 | 3.0 | 6.0 | 0.00 | 0.25 | 0.15 | 91 | 1017.1 |
| 20260902082504 | 63 | 98 | 3.0 | 7.0 | 0.00 | 0.25 | 0.15 | 91 | 1016.9 |
| 20260902082005 | 64 | 95 | 3.0 | 7.0 | 0.00 | 0.25 | 0.15 | 92 | 1016.9 |
| 20260902081505 | 62 | 78 | 2.0 | 7.0 | 0.00 | 0.25 | 0.15 | 93 | 1017.0 |
| 20260902081005 | 62 | 73 | 2.0 | 6.0 | 0.00 | 0.25 | 0.15 | 92 | 1017.0 |
| 20260902080504 | 63 | 82 | 2.0 | 6.0 | 0.00 | 0.25 | 0.15 | 93 | 1016.7 |
| 20260902080005 | 62 | 75 | 2.0 | 6.0 | 0.00 | 0.25 | 0.15 | 95 | 1016.9 |
| 20260902075505 | 62 | 74 | 2.0 | 6.0 | 0.00 | 0.25 | 0.15 | 95 | 1017.1 |
| 20260902075027 | 62 | 76 | 2.0 | 6.0 | 0.00 | 0.25 | 0.15 | 96 | 1016.7 |
| 20260902074505 | 61 | 87 | 1.0 | 3.0 | 0.00 | 0.25 | 0.15 | 97 | 1016.8 |
| 20260902074006 | 61 | 84 | 2.0 | 4.0 | 0.00 | 0.25 | 0.15 | 97 | 1016.9 |
| 20260902073504 | 61 | 76 | 2.0 | 4.0 | 0.00 | 0.25 | 0.15 | 98 | 1016.7 |
| 20260902073004 | 61 | 76 | 2.0 | 4.0 | 0.00 | 0.25 | 0.15 | 98 | 1016.6 |
| 20260902072525 | 61 | 82 | 2.0 | 4.0 | 0.00 | 0.25 | 0.15 | 98 | 1016.8 |
| 20260902072006 | 61 | 85 | 2.0 | 3.0 | 0.00 | 0.25 | 0.15 | 97 | 1016.8 |
| 20260902071505 | 61 | 88 | 2.0 | 4.0 | 0.00 | 0.25 | 0.15 | 98 | 1016.5 |
| 20260902071004 | 61 | 83 | 2.0 | 4.0 | 0.00 | 0.25 | 0.15 | 98 | 1016.5 |
| 20260902070504 | 61 | 75 | 2.0 | 6.0 | 0.00 | 0.25 | 0.15 | 99 | 1016.5 |
| 20260902070007 | 61 | 78 | 2.0 | 6.0 | 0.00 | 0.25 | 0.15 | 99 | 1016.5 |
| 20260902065504 | 61 | 83 | 2.0 | 6.0 | 0.00 | 0.25 | 0.15 | 99 | 1016.2 |
| 20260902065005 | 60 | 87 | 2.0 | 6.0 | 0.00 | 0.25 | 0.15 | 99 | 1016.3 |
| 20260902064505 | 60 | 81 | 2.0 | 6.0 | 0.00 | 0.25 | 0.15 | 99 | 1016.2 |
| 20260902064026 | 60 | 75 | 2.0 | 6.0 | 0.00 | 0.25 | 0.15 | 99 | 1016.2 |
| 20260902063504 | 59 | 83 | 2.0 | 4.0 | 0.00 | 0.25 | 0.15 | 99 | 1016.2 |
| 20260902063005 | 59 | 100 | 1.0 | 4.0 | 0.00 | 0.25 | 0.15 | 99 | 1016.1 |
| 20260902062504 | 59 | 91 | 1.0 | 4.0 | 0.00 | 0.25 | 0.15 | 99 | 1016.2 |
| 20260902062005 | 59 | 73 | 2.0 | 4.0 | 0.00 | 0.25 | 0.15 | 99 | 1016.2 |
| 20260902061547 | 60 | 70 | 2.0 | 4.0 | 0.00 | 0.25 | 0.15 | 99 | 1016.1 |
| 20260902061004 | 60 | 70 | 2.0 | 4.0 | 0.00 | 0.25 | 0.15 | 99 | 1015.9 |
| 20260902060505 | 60 | 70 | 2.0 | 3.0 | 0.00 | 0.24 | 0.15 | 99 | 1016.1 |
| 20260902060005 | 59 | 74 | 2.0 | 4.0 | 0.00 | 0.24 | 0.15 | 99 | 1016.0 |
| 20260902055504 | 59 | 78 | 2.0 | 4.0 | 0.00 | 0.24 | 0.15 | 99 | 1015.9 |
| 20260902055027 | 59 | 82 | 2.0 | 4.0 | 0.00 | 0.24 | 0.15 | 99 | 1015.8 |
| 20260902054505 | 59 | 82 | 2.0 | 6.0 | 0.00 | 0.24 | 0.15 | 99 | 1015.8 |
| 20260902054006 | 59 | 79 | 2.0 | 6.0 | 0.00 | 0.25 | 0.15 | 99 | 1015.9 |
| 20260902053505 | 59 | 77 | 2.0 | 4.0 | 0.00 | 0.26 | 0.15 | 99 | 1015.7 |
| 20260902053004 | 59 | 72 | 2.0 | 3.0 | 0.01 | 0.27 | 0.15 | 99 | 1015.8 |
| 20260902052505 | 59 | 67 | 1.0 | 3.0 | 0.02 | 0.27 | 0.15 | 99 | 1015.7 |
| 20260902052004 | 58 | 66 | 1.0 | 3.0 | 0.02 | 0.28 | 0.15 | 99 | 1015.7 |
| 20260902051505 | 58 | 64 | 1.0 | 3.0 | 0.02 | 0.28 | 0.15 | 99 | 1015.8 |
| 20260902051004 | 58 | 65 | 1.0 | 3.0 | 0.02 | 0.29 | 0.15 | 99 | 1015.5 |
| 20260902050504 | 58 | 68 | 1.0 | 3.0 | 0.02 | 0.29 | 0.15 | 99 | 1015.6 |
| 20260902050026 | 58 | 69 | 1.0 | 3.0 | 0.02 | 0.29 | 0.15 | 99 | 1015.5 |
| 20260902045504 | 58 | 68 | 1.0 | 3.0 | 0.02 | 0.29 | 0.15 | 99 | 1015.5 |
| 20260902045006 | 58 | 72 | 1.0 | 4.0 | 0.02 | 0.29 | 0.15 | 99 | 1015.5 |
| 20260902044505 | 58 | 75 | 2.0 | 4.0 | 0.02 | 0.29 | 0.15 | 99 | 1015.4 |
| 20260902044006 | 58 | 82 | 2.0 | 4.0 | 0.03 | 0.29 | 0.15 | 99 | 1015.5 |
| 20260902043526 | 58 | 83 | 2.0 | 4.0 | 0.02 | 0.28 | 0.14 | 99 | 1015.3 |
| 20260902043025 | 58 | 81 | 2.0 | 4.0 | 0.02 | 0.28 | 0.14 | 99 | 1015.4 |
| 20260902042505 | 58 | 86 | 2.0 | 4.0 | 0.01 | 0.27 | 0.13 | 99 | 1015.4 |
| 20260902042005 | 58 | 93 | 2.0 | 6.0 | 0.01 | 0.27 | 0.13 | 99 | 1015.2 |
| 20260902041505 | 58 | 97 | 2.0 | 6.0 | 0.01 | 0.27 | 0.13 | 99 | 1015.3 |
| 20260902041005 | 58 | 91 | 2.0 | 4.0 | 0.02 | 0.27 | 0.13 | 99 | 1015.1 |
| 20260902040505 | 58 | 85 | 2.0 | 3.0 | 0.03 | 0.27 | 0.13 | 99 | 1015.4 |
| 20260902040005 | 58 | 86 | 2.0 | 3.0 | 0.03 | 0.28 | 0.13 | 99 | 1015.3 |
| 20260902035505 | 58 | 92 | 2.0 | 6.0 | 0.04 | 0.29 | 0.13 | 99 | 1015.2 |
| 20260902035005 | 58 | 94 | 2.0 | 6.0 | 0.05 | 0.30 | 0.13 | 99 | 1015.1 |
| 20260902034505 | 58 | 92 | 2.0 | 3.0 | 0.06 | 0.32 | 0.12 | 99 | 1015.2 |
| 20260902034004 | 58 | 93 | 2.0 | 3.0 | 0.06 | 0.33 | 0.12 | 99 | 1015.2 |
| 20260902033505 | 58 | 92 | 1.0 | 3.0 | 0.06 | 0.34 | 0.12 | 99 | 1014.9 |
| 20260902033005 | 58 | 87 | 1.0 | 3.0 | 0.06 | 0.36 | 0.12 | 99 | 1015.1 |
| 20260902032505 | 58 | 78 | 1.0 | 3.0 | 0.06 | 0.40 | 0.12 | 99 | 1015.2 |
| 20260902032005 | 58 | 69 | 1.0 | 3.0 | 0.06 | 0.48 | 0.12 | 99 | 1015.1 |
| 20260902031504 | 59 | 66 | 1.0 | 3.0 | 0.06 | 0.61 | 0.12 | 99 | 1015.1 |
| 20260902031005 | 59 | 69 | 1.0 | 3.0 | 0.06 | 0.63 | 0.11 | 99 | 1015.1 |
| 20260902030505 | 59 | 74 | 1.0 | 2.0 | 0.05 | 0.63 | 0.10 | 99 | 1015.1 |
| 20260902030004 | 59 | 76 | 1.0 | 2.0 | 0.06 | 0.62 | 0.09 | 99 | 1015.2 |
| 20260902025526 | 59 | 78 | 1.0 | 2.0 | 0.06 | 0.61 | 0.09 | 99 | 1015.2 |
| 20260902025026 | 59 | 89 | 1.0 | 3.0 | 0.06 | 0.61 | 0.08 | 99 | 1015.3 |
| 20260902024504 | 59 | 88 | 1.0 | 3.0 | 0.05 | 0.59 | 0.07 | 99 | 1015.2 |
| 20260902024004 | 59 | 81 | 1.0 | 3.0 | 0.04 | 0.59 | 0.06 | 99 | 1015.2 |
| 20260902023504 | 58 | 71 | 1.0 | 3.0 | 0.04 | 0.59 | 0.06 | 99 | 1014.9 |
| 20260902023005 | 58 | 76 | 1.0 | 3.0 | 0.04 | 0.59 | 0.06 | 99 | 1014.9 |
| 20260902022504 | 58 | 86 | 2.0 | 3.0 | 0.04 | 0.59 | 0.06 | 99 | 1015.1 |
| 20260902022005 | 58 | 82 | 2.0 | 3.0 | 0.04 | 0.59 | 0.06 | 99 | 1014.8 |
| 20260902021504 | 59 | 83 | 2.0 | 3.0 | 0.04 | 0.59 | 0.06 | 99 | 1015.1 |
| 20260902021005 | 59 | 85 | 2.0 | 3.0 | 0.04 | 0.58 | 0.06 | 99 | 1014.8 |
| 20260902020525 | 59 | 81 | 2.0 | 3.0 | 0.04 | 0.58 | 0.06 | 99 | 1014.9 |
| 20260902020004 | 59 | 83 | 2.0 | 3.0 | 0.01 | 0.56 | 0.03 | 99 | 1014.9 |
| 20260902015526 | 59 | 82 | 1.0 | 3.0 | 0.01 | 0.56 | 0.03 | 99 | 1014.9 |
| 20260902015004 | 59 | 89 | 1.0 | 4.0 | 0.00 | 0.55 | 0.02 | 99 | 1014.9 |
| 20260902014504 | 59 | 100 | 2.0 | 4.0 | 0.00 | 0.55 | 0.02 | 99 | 1015.1 |
| 20260902014005 | 59 | 97 | 2.0 | 4.0 | 0.00 | 0.55 | 0.02 | 99 | 1015.1 |
| 20260902013504 | 59 | 92 | 2.0 | 4.0 | 0.00 | 0.55 | 0.02 | 99 | 1014.9 |
| 20260902013005 | 59 | 91 | 2.0 | 4.0 | 0.00 | 0.55 | 0.02 | 99 | 1014.9 |
| 20260902012504 | 59 | 94 | 2.0 | 4.0 | 0.01 | 0.55 | 0.02 | 99 | 1014.8 |
| 20260902012005 | 59 | 94 | 2.0 | 4.0 | 0.01 | 0.55 | 0.02 | 99 | 1014.7 |
| 20260902011504 | 59 | 92 | 2.0 | 4.0 | 0.01 | 0.55 | 0.02 | 99 | 1014.9 |
| 20260902011005 | 59 | 96 | 2.0 | 4.0 | 0.01 | 0.55 | 0.02 | 99 | 1014.8 |
| 20260902010504 | 59 | 90 | 2.0 | 4.0 | 0.01 | 0.55 | 0.02 | 99 | 1014.9 |
| 20260902010004 | 59 | 88 | 2.0 | 4.0 | 0.01 | 0.55 | 0.02 | 99 | 1014.8 |